Погода в Тамазатюбе-Новом

Россия / Республика Дагестан     43°34′44″N   47°09′08″E
темп.,
°C
ветер,
м/с
пор.,
м/с
влажн.,
%
обл.,
%
осадки,
мм/ч
давл.,
гПа
погр.,
м
26 июня, вс
вс2600:00+20з1168100 0.0 100811
03:00+21с4459100 0.0 100669
06:00+22сз3458100 0.0 1007136
09:00+27с124875 0.0 1006829
12:00+32ссв233519 0.0 10041721
15:00+31всв433898 0.0 10041232
18:00+28вюв4446100 0.0 1004287
21:00+23зюз61068100 0.6 1006249
27 июня, пн
пн2700:00+22з71477100 1.2 1006383
03:00+20зсз8148393 2.4 1007403
06:00+21з813780 0.0 1008440
09:00+28зсз910490 0.0 1007996
12:00+34сз56391 0.0 10061838
15:00+32ссв75411 0.0 10071233
18:00+28с6752100 0.0 1007691
21:00+22сз61072100 0.4 1009229
28 июня, вт
вт2800:00+21сз61079100 0.4 1009271
03:00+20зсз6108288 0.4 1009206
06:00+22зсз710730 0.0 1009344
09:00+29ссз78410 0.0 10091626
12:00+31с99330 0.0 10091833
15:00+30с89300 0.0 10091656
18:00+28с6728100 0.0 10111265
21:00+23с34440 0.0 101255
29 июня, ср
ср2900:00+21зсз33474 0.0 101229
03:00+20зсз3347100 0.0 101235
06:00+23ссз344047 0.0 1013137
09:00+29всв343392 0.0 10121253
12:00+31в75405 0.0 10121699
15:00+28в875584 0.0 10131054
18:00+24всв776777 0.0 1014679
21:00+20в477877 0.0 1015242
30 июня, чт
чт3000:00+20в477692 0.0 1015194
03:00+20в4762100 0.0 1015186
06:00+22в574910 0.0 1015840
09:00+25в66375 0.0 10151150
12:00+27в76345 0.0 10141322
15:00+26в66385 0.0 10141402
18:00+24в444534 0.0 1015994
21:00+20юв33615 0.0 101634